Theta_e
289 289 289 289 289 289 289 289 289 289 288 289 289 289 288 288 288 288 288 288 288 288 288 288 288 288 287 287 287 287 286 286 286 287 287 287 287 287 287 287 288 288 288 288 288 288 289 289 290 290 290 290 290 291 291 291 291 291 291 291 291 291 291 291 291 292 292 292 292 291 291 291 291 291 292 292 292 292 292 293 293 293 293 293 294 294
289 289 289 289 289 289 289 289 289 289 288 288 288 289 289 288 288 288 288 288 288 288 288 288 288 288 288 287 287 287 286 286 287 287 287 287 287 287 287 287 287 287 288 288 289 289 289 290 290 290 291 291 290 290 290 290 290 291 291 291 291 291 291 291 291 291 291 291 291 291 291 291 291 291 291 292 292 292 292 292 293 293 293 293 293 294
290 289 289 289 289 289 289 289 289 289 288 288 289 289 289 288 288 288 288 288 288 288 288 288 288 287 287 287 287 287 287 287 287 287 287 287 287 287 287 287 287 288 288 289 289 289 290 290 290 290 290 290 290 290 290 290 290 290 290 290 290 290 290 290 290 290 290 290 290 290 290 290 291 291 291 291 292 292 292 292 292 292 293 293 293 294
290 290 289 289 289 289 289 289 289 289 288 288 288 289 288 288 288 288 288 288 288 288 288 288 287 287 287 287 287 287 287 287 287 287 287 287 287 287 287 287 288 288 288 289 289 289 289 290 290 290 290 290 290 290 290 290 290 290 290 290 290 290 290 290 290 290 290 290 290 290 290 290 290 291 291 291 291 291 291 292 292 292 292 293 293 293
290 290 289 289 289 289 289 289 289 288 288 288 288 288 288 288 288 288 288 288 288 288 288 287 287 287 287 287 287 287 287 287 287 287 287 287 287 287 287 288 288 288 289 289 289 289 289 289 289 290 290 290 290 290 290 290 290 290 289 289 289 289 289 289 289 289 290 289 289 289 290 290 290 290 291 291 291 291 291 291 292 292 292 292 293 293
289 289 289 289 289 289 289 288 289 288 288 288 288 288 287 287 287 287 287 288 288 288 288 288 287 287 288 288 288 288 287 287 287 287 287 287 287 288 288 288 288 288 288 289 289 289 289 289 289 289 289 290 290 290 290 290 290 289 289 289 289 289 289 289 289 289 289 289 289 289 290 290 290 290 290 290 290 291 291 291 291 292 292 292 292 293
289 289 289 289 289 289 289 289 289 288 288 288 287 287 287 287 287 287 287 287 287 288 288 288 288 288 288 288 288 288 288 288 288 288 288 288 288 288 288 288 288 288 288 288 288 288 288 289 289 289 289 289 289 289 289 289 289 289 289 289 289 289 289 289 289 289 289 289 289 289 290 290 290 290 290 290 290 290 291 291 291 291 291 292 292 292
289 289 289 289 289 289 288 288 288 288 288 287 287 287 287 287 287 287 287 287 288 288 288 288 288 288 288 288 288 288 288 288 288 288 288 288 288 288 288 288 288 288 288 288 288 288 288 288 288 289 289 289 289 289 289 289 289 289 289 289 289 289 289 289 289 289 288 289 289 289 290 290 290 290 290 290 290 290 290 290 291 291 291 291 291 292
289 289 289 288 288 288 288 288 288 288 287 287 287 287 287 287 287 287 287 288 288 288 288 288 288 288 288 288 288 288 288 288 288 288 288 288 288 288 288 287 287 287 287 287 287 288 288 288 288 289 289 289 289 289 289 289 288 288 288 289 288 288 288 288 288 288 288 289 289 289 289 289 289 290 289 290 290 290 290 290 290 291 291 291 291 291
289 288 288 288 288 288 288 288 288 287 287 287 287 287 287 287 287 288 288 288 288 288 288 288 288 289 289 289 288 288 288 288 288 288 287 287 287 287 287 287 287 287 287 287 287 288 288 288 288 288 288 288 288 288 288 288 288 288 288 288 288 288 288 288 288 288 288 288 289 289 289 289 289 289 289 289 289 290 290 290 290 290 290 290 291 291
288 288 288 288 288 288 288 287 287 287 287 287 287 287 287 287 287 287 288 288 288 288 288 288 288 288 288 288 288 288 288 288 288 287 287 287 287 287 287 287 287 287 287 287 288 288 288 288 288 288 288 288 288 288 288 288 288 288 288 288 288 288 288 288 288 288 288 288 288 288 289 289 289 289 289 289 289 289 290 290 290 290 290 290 290 290
288 288 288 288 288 287 287 287 287 287 287 287 287 287 287 287 287 287 287 288 288 288 288 288 288 288 288 288 288 288 288 288 287 287 287 287 287 287 287 287 287 287 287 288 288 288 288 288 288 288 287 287 287 287 287 288 288 288 288 288 288 288 288 288 288 288 288 288 288 288 288 288 288 289 289 289 289 289 289 290 290 290 290 290 290 290
287 287 287 287 287 287 287 287 287 287 287 287 287 287 287 287 287 287 287 288 288 288 288 288 288 288 288 288 288 288 288 287 287 287 287 287 287 287 287 287 287 287 287 288 288 288 288 287 287 287 287 287 287 287 287 287 288 288 288 288 288 288 288 288 288 288 288 288 288 288 288 288 288 288 289 289 289 289 289 289 289 289 289 290 290 290
287 287 287 287 287 287 287 287 287 287 287 287 287 287 287 287 287 287 287 288 288 288 288 288 288 288 288 288 288 288 287 287 287 287 287 287 287 287 287 287 287 287 287 287 287 287 287 287 287 287 287 287 287 287 287 287 288 287 287 287 287 287 287 288 288 288 288 288 288 288 288 288 288 288 288 289 289 289 289 289 289 289 289 289 289 290
287 287 287 287 287 287 287 287 287 287 287 287 287 287 287 287 287 287 287 287 287 287 287 287 288 288 288 288 288 287 287 287 287 287 287 287 287 287 287 287 287 287 287 287 287 287 287 287 287 287 287 287 287 287 287 287 287 287 287 287 287 287 287 287 288 287 288 287 287 287 288 288 288 288 288 288 288 289 289 289 289 289 289 289 289 290
287 287 287 287 287 287 287 287 287 287 286 286 286 286 286 287 287 287 287 287 287 287 287 287 287 287 287 287 287 287 287 287 287 287 286 286 286 286 287 287 287 287 287 287 287 287 287 287 287 287 287 287 287 287 287 287 287 287 287 287 287 287 287 287 287 287 287 287 288 288 288 288 288 288 288 288 288 288 288 288 289 289 289 289 289 290
287 287 287 287 287 287 287 286 286 286 286 286 286 286 286 287 287 287 287 287 287 287 287 287 287 287 287 287 287 287 287 287 286 286 286 286 286 286 286 287 287 287 287 287 286 287 287 287 287 287 287 287 287 287 287 287 287 287 287 287 287 287 287 287 287 287 287 287 287 288 288 288 288 288 288 288 288 288 288 288 289 289 289 289 289 290
287 287 287 287 287 287 286 286 286 286 286 286 286 286 286 287 287 287 287 287 287 287 287 287 287 287 287 287 287 287 287 286 286 286 286 286 286 286 286 286 286 286 286 286 286 287 287 287 287 287 287 286 286 286 286 286 287 287 287 287 287 287 287 287 287 287 287 287 287 287 288 288 288 288 288 288 288 288 288 288 289 289 289 289 289 289
287 287 287 287 286 286 286 286 286 286 286 286 286 287 287 287 287 287 287 287 287 287 286 286 286 286 287 287 287 287 286 286 286 286 286 286 286 286 286 286 286 286 286 286 286 286 286 286 286 286 286 286 286 286 286 286 286 286 286 286 287 287 287 287 287 287 287 287 287 287 287 287 287 287 288 288 288 288 288 288 288 289 289 289 289 289
286 286 286 286 286 286 286 286 286 286 287 287 287 287 287 286 286 286 286 286 286 286 286 286 286 286 286 286 286 286 286 285 285 285 286 286 286 286 286 286 286 286 286 286 286 286 286 286 286 286 286 286 286 286 286 286 286 286 286 286 286 286 287 287 287 287 287 287 287 287 287 287 287 287 287 288 288 288 288 288 288 289 289 289 289 289
286 286 286 286 286 286 286 287 287 287 286 286 286 286 286 286 286 286 286 286 286 286 286 286 286 286 286 286 286 285 285 285 285 285 286 286 286 286 286 286 286 286 285 285 285 285 285 285 285 285 285 286 285 285 285 286 286 286 286 286 286 286 286 287 287 287 287 287 287 287 287 287 287 287 287 288 288 288 288 288 288 289 289 289 289 289
286 286 286 286 286 287 287 287 286 286 286 286 286 285 285 285 286 286 285 285 285 285 285 285 285 285 285 285 285 285 285 285 285 285 286 286 286 286 286 285 285 285 285 285 285 285 285 285 285 285 285 285 285 285 285 285 285 285 286 286 286 286 286 286 286 286 286 286 287 287 287 287 287 287 287 288 288 288 288 288 288 288 289 289 289 289
286 286 287 287 287 287 286 286 285 285 285 285 285 285 285 285 285 285 285 285 285 285 285 285 285 284 284 285 285 285 285 285 285 285 286 286 286 285 285 285 285 284 284 284 285 285 285 285 285 285 285 285 285 285 285 285 285 285 285 285 285 285 286 286 286 286 286 286 286 287 287 287 287 287 287 287 288 288 288 288 288 288 288 289 289 289
287 287 287 286 286 286 285 285 285 285 285 285 285 284 284 284 284 284 284 284 284 284 284 284 284 284 284 284 285 285 285 285 285 285 285 285 285 285 284 284 284 284 284 284 285 285 285 285 284 284 284 284 284 284 284 284 284 285 285 285 285 285 285 285 285 285 286 286 286 286 286 287 287 287 287 287 288 288 288 288 288 288 288 288 288 289
286 286 285 285 285 285 285 285 284 284 284 284 284 284 284 284 284 284 284 284 284 284 284 284 284 284 284 285 285 285 286 285 285 285 284 284 284 284 284 284 284 284 284 284 284 284 284 284 284 284 284 284 284 284 284 284 284 284 284 284 284 285 285 285 285 285 285 285 286 286 286 286 287 287 287 287 288 288 288 288 288 288 288 288 288 288
285 285 285 284 284 284 284 284 283 283 283 283 283 283 283 283 283 283 283 283 284 284 284 284 284 284 284 285 285 285 285 285 284 284 284 283 283 283 283 283 284 284 284 284 284 284 284 284 284 284 283 283 283 283 283 284 284 284 284 284 284 284 284 284 285 285 285 285 285 286 286 286 287 287 287 287 287 287 287 288 288 288 288 288 288 288
284 284 284 284 283 283 283 283 282 283 283 283 283 283 283 283 283 283 283 283 283 283 283 283 284 284 284 284 285 285 284 284 284 283 283 283 283 283 283 283 284 284 284 284 283 283 283 283 283 283 283 283 283 283 283 284 284 284 284 284 284 284 284 284 284 284 285 285 285 286 286 286 287 287 287 287 287 287 287 287 288 288 288 288 288 288
283 283 283 283 283 282 282 282 282 282 282 282 282 282 282 282 283 283 283 283 283 283 283 283 284 284 284 284 284 283 283 283 283 283 283 283 283 283 283 283 283 283 283 283 283 283 283 283 283 283 283 283 283 283 283 283 283 283 283 283 283 283 283 284 284 284 284 285 285 285 286 286 286 287 287 287 287 287 287 287 287 288 288 288 288 288
283 283 283 283 282 282 282 282 282 282 282 282 282 282 282 282 282 282 282 282 282 282 282 283 283 283 283 283 282 282 282 283 283 283 283 283 283 283 283 283 283 283 283 283 282 282 282 282 283 283 283 283 283 283 283 283 283 283 283 283 283 283 283 284 284 284 284 285 285 285 286 286 286 286 287 287 287 287 287 287 287 287 288 288 288 288
284 284 283 283 283 282 282 282 282 282 281 282 282 282 282 282 282 282 282 282 282 282 282 282 282 282 282 282 282 282 283 283 283 283 283 282 283 283 283 283 283 282 282 282 282 282 282 283 283 283 283 283 283 283 283 282 282 283 283 283 283 283 283 284 284 284 284 285 285 285 285 286 286 286 286 286 287 287 287 287 287 287 288 288 288 288
284 284 283 283 283 283 282 282 282 282 282 282 282 282 282 282 282 282 282 281 281 281 282 282 281 281 281 281 282 282 284 283 283 283 282 282 282 282 282 282 282 282 281 281 281 282 282 282 282 282 282 282 282 282 282 282 282 282 283 283 283 283 284 284 284 284 284 285 285 285 285 286 286 286 286 286 287 287 287 287 287 287 288 288 288 288
283 283 283 283 283 282 282 282 282 282 282 282 282 282 282 282 282 282 282 281 281 281 281 281 281 281 281 281 281 282 282 282 282 282 282 282 282 282 282 281 281 281 281 281 281 281 281 282 282 282 282 282 282 282 282 282 282 283 283 283 283 283 284 284 284 284 285 285 285 285 285 285 286 286 286 286 286 287 287 287 287 287 287 288 288 288
283 283 283 283 283 283 283 283 283 283 282 282 282 282 282 282 282 282 282 281 281 281 281 281 281 281 281 281 281 281 281 281 281 281 281 281 281 281 281 281 281 281 281 280 280 280 280 281 281 281 281 281 281 282 282 282 282 283 283 283 283 283 284 284 284 284 285 285 285 285 285 285 285 286 286 286 286 286 287 287 287 287 287 287 287 288
283 283 283 283 283 283 283 283 283 283 283 283 282 282 282 282 282 282 282 282 281 281 281 281 281 281 281 281 281 281 281 281 281 281 281 281 281 281 281 281 281 281 280 280 280 280 280 280 280 281 281 281 281 282 282 282 282 283 283 283 283 283 284 284 284 284 284 284 285 285 285 285 285 285 286 286 286 286 286 286 286 287 287 287 287 288
283 283 283 283 284 284 284 284 283 283 283 283 283 283 283 282 282 282 282 282 281 281 281 281 281 281 281 281 281 281 281 281 281 281 281 281 281 281 281 281 281 281 280 280 280 280 280 280 280 280 281 281 281 281 282 282 282 283 283 283 283 283 283 283 284 284 284 284 284 285 285 285 285 285 285 285 286 286 286 286 286 286 286 287 287 287
283 283 283 284 284 284 284 284 283 283 283 283 283 283 283 283 282 282 282 282 282 282 281 281 281 281 281 281 281 281 281 281 281 281 281 281 281 281 281 281 281 280 280 280 280 280 280 280 280 280 280 281 281 281 282 282 282 282 283 283 283 283 283 283 283 284 284 284 284 284 285 285 285 285 285 285 285 286 286 286 286 286 286 286 287 287
283 283 283 284 284 284 284 284 283 283 283 283 283 283 283 283 283 283 282 282 282 282 282 281 281 281 281 281 281 281 281 281 281 281 281 281 281 281 281 281 281 280 280 280 280 280 280 280 280 280 280 281 281 282 282 282 282 282 282 282 283 283 283 283 283 283 284 284 284 284 285 285 285 285 285 285 285 285 285 285 285 286 286 286 286 287
283 283 283 283 283 283 283 283 283 283 283 283 283 283 283 283 283 283 282 282 282 282 282 282 282 282 282 282 281 281 281 281 281 281 281 281 281 281 281 281 280 280 280 280 280 280 280 280 280 280 281 281 281 281 282 282 282 282 282 282 282 283 283 283 283 284 284 284 284 284 284 284 285 285 285 285 285 285 285 285 285 285 286 286 286 287
283 283 283 283 283 283 283 283 283 283 283 283 283 283 283 283 283 283 283 282 282 282 282 282 282 282 282 282 282 282 282 282 281 281 281 281 281 281 281 280 280 280 280 280 280 280 280 280 280 280 281 281 281 281 281 281 281 282 282 282 282 283 283 283 283 284 284 284 284 284 284 284 285 285 285 285 285 285 285 285 285 285 286 286 286 286
283 283 283 283 283 283 283 283 283 283 283 283 283 283 283 283 283 283 283 283 283 283 283 283 283 283 282 282 282 282 282 282 282 282 281 281 281 281 281 281 280 280 280 280 280 280 280 280 280 280 280 281 281 281 281 281 281 281 282 282 282 283 283 283 283 283 284 284 284 284 284 284 285 285 285 285 285 285 285 285 285 285 286 286 286 286
283 283 283 283 283 283 283 283 283 283 283 283 283 283 283 283 283 283 283 283 283 283 283 283 283 283 283 283 283 282 282 282 282 282 282 282 281 281 281 281 281 281 280 280 280 280 280 280 280 280 280 280 281 281 281 281 281 282 282 282 282 283 283 283 283 283 283 284 284 284 284 284 284 284 284 284 284 285 285 285 285 285 286 286 286 286
283 283 283 283 283 283 283 283 283 283 283 283 283 283 283 283 283 283 283 283 283 283 283 283 283 283 283 283 283 283 283 283 282 282 282 282 282 282 281 281 281 281 281 281 280 280 280 280 280 280 280 280 281 281 281 281 281 281 282 282 282 283 283 283 283 283 283 283 284 284 284 284 284 284 284 284 285 285 285 285 285 286 286 286 286 286
283 282 282 283 283 283 283 283 283 283 283 283 283 283 283 283 283 283 284 284 284 284 284 284 284 284 284 283 283 283 283 283 283 283 283 283 282 282 282 282 281 281 281 281 281 281 280 280 280 280 280 280 281 281 281 281 281 281 282 282 282 283 283 283 283 283 283 283 283 283 284 284 284 284 284 285 285 285 285 285 286 286 286 286 286 286
282 282 282 283 283 283 283 283 283 283 283 283 283 283 283 283 284 284 284 284 284 284 284 284 284 284 284 284 284 284 283 283 283 283 283 283 283 282 282 282 282 281 281 281 281 281 281 281 281 281 281 281 281 281 281 281 281 282 282 282 282 283 283 283 283 283 283 283 283 283 284 284 284 285 285 285 285 285 285 285 286 286 286 286 286 286
282 282 283 283 283 283 283 283 283 283 283 283 283 283 283 284 284 284 284 284 284 284 284 284 284 284 284 284 284 284 284 284 284 283 283 283 283 283 282 282 282 282 281 281 281 281 281 281 281 281 281 281 281 281 281 281 281 282 282 282 282 283 283 283 283 283 283 283 284 284 284 284 285 285 285 285 285 285 285 285 285 285 286 285 285 285
282 283 283 283 283 283 283 283 283 283 283 283 283 283 284 284 284 284 284 284 284 284 284 284 284 284 284 284 284 284 284 284 284 284 284 283 283 283 283 282 282 282 282 281 281 281 281 281 281 281 281 281 281 281 281 281 281 282 282 282 282 283 283 283 283 283 283 284 284 284 284 285 285 285 285 285 285 285 285 285 285 285 286 286 286 286
283 283 283 283 283 283 283 283 283 283 283 283 284 284 284 284 284 284 285 285 285 285 285 285 285 285 284 284 284 284 284 284 284 284 284 283 283 283 283 283 282 282 282 281 281 281 281 281 281 280 280 281 281 281 281 281 282 282 282 282 282 283 283 283 283 283 284 284 284 284 284 284 285 285 285 285 285 285 285 285 285 286 286 286 286 286
283 283 283 283 283 283 283 283 283 283 283 284 284 284 284 284 285 285 285 285 285 285 285 285 285 285 284 284 284 284 284 284 284 284 284 284 283 283 283 283 282 282 282 281 281 281 281 281 281 281 281 281 281 281 281 282 282 282 282 282 282 283 283 283 283 284 284 284 284 284 284 284 284 284 285 285 285 285 285 285 286 286 286 286 286 286
282 282 282 282 283 283 283 283 283 283 284 284 284 284 284 285 285 285 285 285 285 285 285 285 285 285 285 285 285 284 284 284 284 284 284 284 284 283 283 283 282 282 282 282 281 281 281 281 281 281 281 281 281 281 282 282 282 282 282 283 283 283 283 283 283 284 284 284 284 284 284 284 284 284 284 285 285 285 285 286 286 286 286 287 287 287
282 282 282 283 283 283 283 283 283 284 284 284 284 285 285 285 285 285 285 285 285 286 285 285 285 285 285 285 285 285 285 285 284 284 284 284 284 283 283 283 283 282 282 282 282 282 282 282 282 282 282 282 282 282 282 282 282 283 283 283 283 283 283 283 283 283 284 284 284 284 284 284 284 284 285 285 285 286 286 286 286 286 287 287 287 287
282 282 282 283 283 283 283 283 284 284 284 284 284 285 285 285 285 285 286 286 286 286 286 286 286 286 285 285 285 285 285 285 285 284 284 284 284 284 283 283 283 282 282 282 282 282 282 282 282 282 282 282 283 283 283 283 283 283 283 283 283 283 283 283 283 283 283 283 283 283 284 284 284 284 285 285 286 286 286 286 286 287 287 287 287 287
Wind_Speed
6 7 8 9 9 9 9 8 8 9 9 9 9 9 9 10 10 11 11 11 11 11 12 12 13 13 14 15 16 16 17 16 16 16 15 15 15 15 15 15 15 16 16 17 18 19 19 20 20 21 21 22 22 22 22 23 23 23 24 24 24 25 25 25 25 25 25 25 25 26 26 26 26 26 26 27 27 28 28 29 29 30 30 30 31 31
7 8 8 8 9 9 9 9 8 8 9 10 10 10 10 11 11 11 11 11 11 11 12 12 13 14 14 15 16 16 17 17 17 17 16 16 16 16 16 16 16 17 17 18 19 20 20 21 21 22 22 22 23 23 23 23 24 24 24 25 25 25 25 25 25 25 25 25 25 25 25 25 26 26 27 27 28 28 29 29 30 30 31 31 31 32
8 8 8 8 8 8 9 9 9 9 9 10 10 10 11 12 11 11 10 10 11 12 12 12 13 14 14 15 16 16 17 17 17 18 18 17 17 17 17 17 18 18 19 19 20 20 21 21 22 22 22 23 23 23 24 24 24 24 25 25 25 25 25 25 25 25 25 25 25 25 25 25 26 26 27 27 28 29 29 30 30 31 31 31 32 32
8 8 8 8 8 8 8 9 9 9 9 10 10 11 11 11 11 11 11 11 11 12 12 13 13 13 14 14 15 16 17 17 18 19 19 19 18 18 18 18 19 19 19 20 20 21 21 22 22 23 23 23 23 24 24 24 25 25 25 25 25 25 25 25 25 25 25 25 25 25 26 26 26 27 27 27 28 29 29 30 30 31 31 32 32 32
8 8 8 8 8 8 8 8 9 9 9 9 10 11 11 11 11 11 11 12 12 12 12 13 13 13 13 14 15 16 17 18 19 20 20 20 19 19 19 19 19 19 20 20 21 21 22 22 23 23 23 23 24 24 24 25 25 25 25 26 25 25 25 25 25 25 25 25 26 26 26 26 27 27 27 28 28 29 30 30 31 31 32 32 32 33
8 8 8 8 8 8 8 8 8 9 9 10 10 11 11 11 11 12 12 12 12 12 12 13 13 13 13 14 15 16 17 18 19 19 19 19 19 19 19 19 19 19 20 21 21 22 22 23 23 23 23 23 24 24 24 25 25 25 26 25 25 25 25 25 26 26 26 26 26 26 27 27 27 28 28 29 29 30 30 31 31 31 32 32 33 33
8 8 8 8 8 8 8 8 8 8 9 10 11 12 12 12 11 11 12 12 12 12 13 13 13 13 13 14 15 16 17 18 18 18 18 18 18 18 18 18 19 20 21 21 22 22 23 23 23 23 23 23 24 24 25 25 25 25 25 25 25 25 26 26 26 26 27 27 27 27 27 28 28 29 29 30 30 30 31 31 32 32 32 33 33 33
8 8 8 8 8 9 8 8 8 8 9 11 12 13 13 12 11 11 11 12 12 12 13 13 13 13 13 14 15 15 16 17 17 17 17 17 17 17 18 19 20 21 21 22 22 23 23 23 23 23 23 23 24 24 25 25 25 25 25 25 26 26 26 26 27 27 27 27 28 28 28 29 29 30 30 31 31 31 32 32 32 33 33 33 33 34
9 9 9 8 8 9 9 8 8 8 10 11 12 12 12 12 12 12 12 11 11 12 12 13 14 14 14 14 15 15 16 16 16 16 16 16 17 18 19 20 21 22 22 22 22 22 22 22 23 23 23 23 23 24 24 25 25 25 25 25 26 26 26 27 27 27 28 28 28 29 30 30 31 31 31 32 32 32 33 33 33 33 34 34 34 34
9 9 9 9 8 8 9 9 9 9 10 10 11 11 11 11 12 13 13 12 12 12 12 13 14 15 15 15 15 15 16 16 16 16 16 17 17 19 20 21 21 22 22 22 22 22 22 22 22 22 22 23 23 24 24 24 25 25 25 25 26 26 26 27 27 28 28 29 29 30 30 31 31 32 32 33 33 33 33 33 34 34 34 35 35 35
9 9 9 9 8 8 8 9 10 10 10 10 10 10 9 10 11 12 13 14 13 13 13 13 14 15 16 16 16 16 16 16 16 16 16 16 17 19 20 20 21 21 21 21 21 21 21 21 21 21 22 22 23 23 23 24 24 24 24 25 26 26 27 27 28 28 29 29 30 31 31 32 32 32 33 33 33 34 34 34 34 34 35 35 35 35
8 8 8 8 9 9 9 9 10 10 10 10 10 10 9 9 10 11 13 14 14 14 14 15 15 15 16 17 17 17 16 15 15 15 15 16 17 18 18 18 19 19 19 19 19 19 19 19 20 21 21 22 22 22 22 23 23 24 24 25 26 27 27 28 28 29 29 30 31 31 31 32 32 33 33 33 34 34 34 34 34 35 35 35 35 35
8 8 8 9 9 9 9 10 10 9 9 9 9 10 10 11 11 12 13 13 14 15 15 16 17 17 17 16 16 16 15 15 15 15 16 16 17 18 18 18 18 18 18 18 18 18 18 19 20 20 20 20 20 21 21 22 23 23 24 25 26 27 28 29 29 30 30 31 31 31 32 32 32 33 33 34 34 34 34 34 35 35 35 35 35 36
9 9 9 9 9 9 9 9 9 9 9 10 10 10 11 12 12 13 13 13 14 15 16 17 18 18 17 16 15 14 14 14 15 15 16 17 17 18 18 18 19 19 18 18 18 18 18 19 19 19 19 19 19 20 20 21 22 24 25 26 27 28 29 29 30 30 31 31 31 32 32 32 33 33 33 34 34 34 35 35 35 35 35 35 36 36
9 9 9 9 9 9 9 9 9 10 10 10 11 11 12 13 13 13 13 14 15 16 16 17 17 17 16 14 13 13 13 13 15 16 18 18 18 18 18 19 19 19 18 19 19 19 18 18 18 18 18 18 19 19 21 22 24 25 27 28 28 29 30 30 30 31 31 31 31 32 32 32 33 33 34 34 34 35 35 35 35 36 36 36 36 36
9 9 9 9 10 10 9 9 9 10 11 11 11 12 12 12 13 13 13 14 15 15 15 16 16 16 15 13 12 11 11 13 15 18 20 20 20 19 18 18 19 19 19 19 19 19 18 18 18 18 19 19 19 20 22 24 26 27 28 29 29 30 30 30 31 31 31 32 32 32 32 33 33 33 34 34 35 35 35 36 36 36 36 36 36 37
9 9 9 9 10 10 10 10 10 10 11 12 12 12 12 12 13 13 14 14 14 14 14 14 13 12 12 13 12 11 12 14 17 19 21 21 21 19 17 17 18 19 19 19 19 18 18 18 19 19 19 19 20 21 23 25 27 28 29 29 29 30 30 31 31 32 32 32 32 32 33 33 33 34 34 35 35 35 36 36 36 36 37 37 37 37
10 10 10 10 10 10 10 10 11 11 11 11 12 12 12 13 13 14 14 14 14 14 13 13 13 12 11 13 13 13 14 16 18 20 21 22 21 20 17 17 18 19 19 19 19 18 18 19 19 20 20 21 22 23 25 26 28 28 29 29 30 30 31 31 32 32 33 33 33 33 33 34 34 34 35 35 35 36 36 36 37 37 37 37 37 37
11 10 10 10 10 11 11 11 11 11 11 11 12 12 13 14 14 14 14 14 14 14 14 14 14 15 15 15 17 17 17 17 18 20 21 21 21 20 18 17 17 19 19 19 19 19 19 19 20 20 21 22 22 23 25 26 27 28 29 30 30 31 32 32 33 33 33 33 33 34 34 34 35 35 36 36 36 36 37 37 37 37 37 37 37 37
11 11 10 10 10 11 11 11 10 10 10 11 12 13 14 15 15 15 14 14 14 14 15 15 16 16 17 18 19 19 18 18 18 19 20 21 21 20 18 17 17 19 20 20 20 19 20 20 21 21 21 21 22 23 24 26 28 29 30 31 31 32 32 32 33 33 33 34 34 34 35 35 35 36 36 36 37 37 37 37 37 37 37 37 37 37
12 11 11 10 10 11 11 11 10 11 12 13 15 15 16 16 15 15 15 15 15 16 16 16 17 17 18 19 20 20 19 18 18 18 19 20 20 19 17 17 18 20 21 21 21 20 20 21 21 21 21 21 22 23 25 27 29 30 30 31 31 31 32 32 33 33 34 34 34 35 35 35 36 36 36 37 37 37 37 37 37 37 37 37 37 37
11 11 11 11 11 11 12 12 12 13 14 15 15 16 16 16 15 16 16 16 16 17 17 17 18 19 20 21 21 21 19 18 17 17 17 18 19 20 18 17 18 20 22 22 21 21 20 21 21 21 21 22 23 24 26 27 29 30 30 30 31 31 31 32 32 33 34 34 35 35 35 36 36 36 37 37 37 37 37 37 37 37 37 37 37 37
11 11 11 11 11 11 12 12 13 14 15 15 16 16 16 16 16 17 17 17 17 17 18 18 19 20 21 21 21 20 18 16 16 15 15 15 18 20 19 19 19 21 22 22 22 21 21 21 22 22 22 23 24 24 26 27 28 29 29 30 30 30 30 31 32 33 34 34 35 35 36 36 36 37 37 37 37 37 37 37 37 37 37 37 37 37
11 12 11 11 11 11 12 14 15 15 16 16 16 17 17 17 18 18 18 18 17 17 18 19 19 20 20 19 19 18 16 14 13 13 13 15 18 21 20 19 20 21 22 22 22 22 22 23 23 23 23 24 24 25 25 26 27 28 28 28 29 29 30 31 32 33 34 35 35 36 36 36 37 37 37 37 37 37 37 37 37 37 37 37 37 37
12 12 11 12 13 14 15 16 17 17 18 17 17 17 17 17 17 17 16 16 16 16 17 17 17 17 17 17 16 15 14 12 11 12 13 15 19 21 20 19 19 21 22 23 22 22 23 24 24 24 24 24 24 25 25 25 26 26 27 28 29 30 31 32 33 34 35 35 35 36 36 36 36 36 36 36 36 37 37 37 37 37 37 37 37 37
12 13 14 16 17 19 20 21 21 20 19 18 17 16 15 14 15 15 15 14 14 14 14 14 15 15 16 15 15 14 13 12 12 12 14 15 18 20 20 19 19 21 23 24 24 23 23 24 25 25 25 25 24 23 23 23 24 24 26 27 29 31 33 34 35 35 35 35 35 36 36 36 36 36 36 36 36 37 37 37 36 36 36 37 37 37
15 17 18 19 20 21 22 21 20 19 17 16 15 14 13 13 13 13 13 13 12 12 12 12 13 14 15 14 14 14 14 14 14 14 14 16 17 19 19 19 19 21 23 25 25 24 24 25 25 25 25 24 23 22 22 22 23 24 26 28 30 32 33 34 35 35 35 35 35 35 35 35 36 36 36 37 37 36 36 36 36 36 36 36 35 35
16 17 18 19 20 20 20 19 17 15 14 13 12 12 12 12 12 12 12 11 11 11 12 12 12 12 13 13 14 16 16 16 15 14 13 14 15 16 18 19 19 21 23 24 26 26 25 25 24 23 23 22 21 21 21 22 23 25 27 29 31 32 33 34 34 34 34 34 35 35 35 35 36 36 36 36 36 36 35 35 35 35 34 33 32 31
14 15 16 17 18 18 18 16 14 12 11 10 10 10 10 10 11 11 12 11 10 11 12 13 13 13 13 15 16 17 17 15 13 12 11 12 14 17 19 19 19 20 22 24 26 27 25 23 21 20 19 20 21 21 22 23 24 25 27 29 30 31 32 32 32 32 33 34 34 35 35 35 36 36 36 36 35 35 34 34 34 33 32 31 30 29
13 14 15 15 16 15 15 13 12 11 11 10 10 10 9 9 10 10 11 10 10 11 12 13 13 13 13 14 14 14 13 12 10 9 10 12 14 17 19 19 19 19 20 20 19 19 21 23 21 18 18 20 21 22 23 23 24 25 26 27 28 29 30 30 30 31 32 33 33 34 34 35 35 35 35 35 34 34 33 33 32 31 30 29 28 29
14 14 14 14 14 13 12 12 11 10 10 10 10 9 9 9 9 9 9 10 10 11 12 12 13 13 13 11 9 7 7 10 10 10 11 13 15 17 18 19 19 19 18 16 10 8 13 19 23 23 21 21 22 23 23 23 24 24 25 25 27 28 28 29 30 30 31 32 32 32 33 33 33 34 34 34 33 32 32 31 31 29 28 28 28 28
14 14 13 13 13 12 11 10 9 9 9 9 9 9 9 9 9 9 9 10 10 11 11 12 13 13 13 12 10 9 10 14 15 14 13 14 16 18 18 18 18 18 18 16 14 11 9 12 20 27 25 24 24 24 24 24 23 24 24 25 26 27 28 28 29 30 30 31 31 31 32 32 32 33 32 32 31 31 30 30 29 29 28 28 28 29
14 14 13 12 12 11 10 9 9 9 9 9 9 9 9 9 9 9 10 10 10 11 12 12 13 14 14 15 15 15 17 18 17 15 14 15 16 17 17 18 18 19 19 18 18 18 15 17 22 27 28 27 26 25 24 24 24 24 24 25 26 27 28 28 28 29 29 30 30 31 31 31 31 31 31 30 30 29 29 29 29 29 29 29 29 30
14 13 12 11 11 10 9 9 9 9 10 9 9 9 9 9 10 10 10 11 11 11 12 13 13 14 14 15 16 17 18 18 17 15 14 14 15 17 18 19 19 19 19 19 19 20 20 22 23 24 26 27 27 26 25 24 24 24 24 24 25 26 27 27 28 28 29 30 30 30 30 30 29 29 29 29 29 29 29 30 30 31 31 31 31 31
13 12 11 11 10 10 10 9 9 10 10 9 9 9 10 10 10 11 11 11 12 12 13 13 14 14 15 15 16 17 18 18 17 16 16 16 16 18 19 19 19 19 18 19 19 18 19 22 23 23 23 26 27 27 26 24 24 24 24 24 25 26 27 27 28 28 29 29 30 29 29 29 29 29 29 29 29 30 31 32 32 33 33 33 32 32
12 12 11 10 10 10 10 10 10 10 10 10 10 10 10 11 11 12 12 12 13 13 14 15 16 16 17 18 18 19 20 21 20 19 18 17 18 18 18 18 19 19 18 19 19 19 19 21 23 24 24 23 24 26 26 25 24 24 25 26 26 26 26 27 27 28 28 29 29 29 29 29 29 30 30 30 31 31 32 33 33 33 33 33 33 32
11 11 11 10 10 10 10 10 10 10 10 10 10 11 11 12 12 13 13 14 15 16 17 18 18 19 19 20 21 22 23 23 22 21 20 20 20 20 20 20 20 20 19 19 20 20 19 20 22 23 22 21 21 23 26 27 27 26 27 27 27 27 27 27 27 27 27 28 28 29 30 30 30 30 30 30 31 31 31 31 31 32 32 32 33 33
11 11 10 10 10 10 10 10 11 11 11 11 12 12 13 14 14 15 15 16 17 17 18 19 19 20 21 22 24 25 26 26 26 26 25 23 23 22 22 22 22 22 21 20 20 20 20 19 16 15 17 21 23 25 26 27 27 28 28 29 29 28 28 27 27 27 27 28 29 30 30 30 30 30 29 29 29 30 30 31 31 31 31 32 32 32
10 10 11 11 10 10 10 11 11 12 12 12 13 14 15 15 16 16 16 17 17 18 18 19 19 20 22 24 25 26 27 27 28 29 28 27 26 25 24 23 22 22 22 21 20 21 21 20 18 16 17 20 23 26 28 27 27 28 29 30 31 30 28 27 26 26 27 28 29 30 30 29 28 28 28 29 29 29 30 31 31 31 31 31 31 32
10 11 11 11 11 11 11 12 12 13 13 14 15 15 16 16 16 17 17 17 17 17 18 18 19 20 21 22 23 24 26 27 28 28 28 27 26 25 25 24 23 22 22 21 21 21 21 21 22 22 22 22 23 26 27 28 28 28 28 28 28 28 29 29 28 27 28 27 27 28 28 28 28 28 28 28 29 29 30 30 30 31 31 30 30 30
11 12 12 12 12 12 12 12 13 13 14 15 16 16 16 16 16 16 16 17 16 16 17 18 18 19 20 21 22 23 24 25 25 26 26 27 27 26 26 25 24 23 22 22 22 22 21 22 22 23 24 24 25 27 28 28 29 29 28 27 27 29 31 31 29 28 27 27 26 27 27 28 29 29 30 29 30 30 30 31 31 32 31 29 28 28
11 12 12 12 12 12 13 13 14 14 15 15 16 16 16 16 16 16 16 17 17 17 17 17 17 19 20 21 21 21 21 22 23 24 25 25 26 26 26 25 24 23 22 22 22 22 23 22 23 24 24 24 25 25 27 29 30 29 27 27 29 30 30 30 28 27 26 26 27 27 28 29 29 29 30 30 30 31 31 31 31 31 31 30 29 28
12 12 12 12 13 13 14 14 15 15 16 15 15 15 16 16 16 16 16 17 18 18 18 17 17 18 19 20 20 20 20 21 21 22 22 22 23 24 24 25 24 24 23 21 21 22 22 23 23 24 24 24 24 24 26 28 29 29 29 28 28 26 24 26 28 27 27 28 28 28 28 28 28 29 30 30 30 31 30 31 30 30 29 29 28 28
12 12 12 13 13 14 14 14 14 15 15 15 16 16 16 16 16 17 17 17 18 18 18 18 18 18 19 19 20 20 20 20 20 20 20 20 21 22 22 23 23 23 22 22 21 21 22 23 23 24 24 24 24 24 26 27 28 29 29 29 27 25 24 26 28 29 29 29 29 28 27 27 28 29 30 30 30 31 30 30 29 29 29 28 27 27
12 12 13 13 13 14 14 14 15 15 15 15 16 16 17 17 17 17 17 18 18 18 19 18 18 18 18 19 19 20 20 20 19 19 19 18 18 18 19 20 20 21 21 21 21 21 22 23 24 25 24 24 24 25 26 27 28 29 29 29 27 27 27 28 28 28 28 28 28 28 28 27 27 29 30 30 30 30 30 30 30 29 29 28 27 27
12 13 13 13 14 14 14 15 15 15 15 16 16 17 17 16 16 17 17 17 18 18 18 17 17 16 17 18 19 19 20 20 20 19 18 18 17 17 17 18 18 18 19 20 22 23 23 24 25 26 26 26 26 26 26 27 27 27 27 27 27 27 28 27 27 26 25 26 27 28 28 28 28 29 29 30 31 31 31 30 29 29 28 28 28 27
12 12 13 14 14 14 15 15 15 15 15 16 16 17 16 16 17 17 17 17 17 17 18 18 17 17 18 18 19 19 19 20 20 20 20 19 18 17 17 17 17 18 19 21 23 25 25 26 27 27 26 25 25 26 27 27 26 25 25 26 26 26 26 27 26 26 25 26 26 27 29 29 28 29 29 30 30 30 30 30 29 28 27 27 26 27
12 13 13 14 14 14 15 15 15 15 15 16 17 17 17 17 17 17 17 18 18 18 18 18 18 18 19 19 19 19 19 19 20 20 20 20 19 18 17 17 17 18 19 21 23 24 26 27 27 27 27 25 25 25 27 27 26 25 25 25 25 25 25 26 27 26 26 25 26 27 28 28 27 28 28 29 29 29 30 30 29 29 27 26 26 26
12 12 13 14 14 14 15 15 15 15 16 16 17 18 18 18 18 18 18 18 18 18 18 18 18 18 18 19 19 19 20 20 20 20 20 19 18 18 18 18 18 19 20 21 22 22 23 24 25 26 26 26 26 26 27 27 26 26 25 25 24 24 25 26 27 27 26 26 26 27 27 27 27 27 27 27 27 28 29 30 30 29 28 26 25 24
12 13 13 13 14 14 15 15 15 16 16 17 17 18 19 19 19 18 18 18 18 17 17 18 18 18 18 19 19 20 20 20 20 20 20 19 19 18 18 19 19 19 20 20 20 20 19 20 21 21 22 23 24 25 26 26 26 25 25 24 24 24 24 25 26 27 26 27 27 27 27 27 27 26 25 25 25 26 28 29 29 29 28 27 26 25
12 13 13 14 14 14 15 15 16 16 17 17 18 18 18 19 19 19 18 18 18 18 18 19 18 18 19 19 20 20 19 19 19 20 20 20 19 19 19 19 19 19 19 19 18 18 17 16 16 18 19 19 19 21 22 23 23 23 23 24 24 24 24 25 26 27 27 27 27 27 27 27 27 25 24 24 24 24 25 27 28 29 29 28 27 26
Wind_Direction
300 304 307 310 310 307 305 307 309 309 310 310 310 310 310 311 310 309 310 312 311 310 309 309 309 310 312 315 319 323 327 330 332 332 330 328 325 323 320 318 317 317 317 317 318 317 316 315 315 314 313 313 313 312 312 312 312 312 313 313 313 313 313 312 311 311 310 310 309 308 308 308 307 307 306 306 306 305 305 305 305 304 304 304 304 303
305 306 307 308 308 306 304 305 307 309 309 309 309 309 310 310 310 309 309 309 309 308 308 309 310 310 310 312 315 320 324 328 329 329 328 326 324 321 319 318 317 317 316 315 314 313 312 312 311 311 310 310 310 310 310 310 310 310 310 311 311 311 311 310 310 309 309 308 308 308 307 307 306 305 305 305 304 304 303 303 303 303 303 303 302 302
309 308 308 309 308 306 304 306 308 309 309 308 308 309 311 311 310 309 309 308 308 308 308 309 309 309 309 311 314 318 321 324 325 326 326 324 323 321 319 318 316 315 314 312 310 309 309 309 308 308 308 307 307 308 308 308 308 308 308 308 309 309 309 309 308 308 307 307 307 306 306 305 305 304 304 304 303 303 302 302 302 302 301 301 301 300
309 308 309 310 309 306 304 306 309 310 310 309 310 312 314 313 311 309 308 308 308 308 308 308 308 308 309 310 312 315 318 319 321 322 322 322 321 319 318 316 314 312 310 308 308 307 307 306 306 306 305 305 305 305 305 306 306 306 306 306 307 307 307 306 306 306 306 306 305 305 304 304 304 303 303 303 302 302 301 301 301 301 300 300 300 299
309 308 310 311 310 308 308 310 311 312 313 314 315 317 317 315 312 310 309 309 309 308 308 308 308 308 308 308 310 312 314 315 316 318 318 318 317 316 315 312 310 308 307 306 305 305 304 304 304 304 303 303 303 303 304 304 304 304 305 305 305 305 305 304 304 304 305 304 304 304 303 303 303 302 302 302 301 301 301 301 300 300 300 299 299 298
309 309 310 310 310 310 312 314 316 319 320 320 320 319 317 314 312 311 310 311 310 309 308 307 307 307 307 306 307 309 311 312 313 314 314 313 312 311 310 308 306 305 304 303 302 302 302 302 301 301 301 301 302 302 302 302 302 303 303 303 303 303 303 303 303 304 304 304 303 303 303 302 302 302 302 301 301 301 301 300 300 300 299 299 298 298
309 311 313 313 312 313 314 316 319 324 326 325 323 321 317 315 312 311 310 310 310 309 308 307 307 307 307 307 308 309 311 311 311 311 310 309 308 307 305 304 303 302 301 300 300 299 299 299 299 299 299 299 300 300 300 301 301 301 301 301 301 301 302 302 302 303 303 303 303 303 302 302 302 302 302 301 301 301 300 300 300 299 299 298 298 297
311 315 317 318 318 317 316 316 320 326 328 326 323 320 318 316 314 312 311 310 311 311 311 310 309 309 309 308 309 310 310 309 309 308 307 306 305 304 302 301 300 299 298 297 297 297 297 297 297 297 297 297 298 298 298 298 299 299 299 299 299 300 300 301 301 302 303 303 303 302 302 302 302 302 301 301 301 300 300 300 299 299 299 298 297 297
313 317 319 320 320 319 317 315 318 323 325 322 319 317 316 316 316 316 316 315 315 314 313 312 311 311 310 310 310 309 308 306 305 304 304 303 302 301 300 299 298 297 296 295 295 295 294 294 294 295 295 296 296 296 296 296 296 296 296 297 298 298 299 300 301 302 302 302 302 302 302 302 302 302 301 301 301 300 300 299 299 299 298 298 297 296
316 318 318 318 317 316 314 312 314 317 319 317 313 310 310 314 317 320 320 319 318 316 315 313 312 311 311 311 310 308 306 304 302 301 299 299 298 299 298 297 296 296 295 294 293 293 293 293 292 293 293 294 294 294 294 294 294 294 294 295 296 297 298 299 300 301 302 302 302 302 302 302 302 301 301 301 301 300 300 299 299 298 298 297 296 296
319 319 318 316 315 314 311 310 311 314 316 315 313 311 311 316 320 321 320 318 317 317 316 313 311 310 310 310 309 308 307 305 303 302 300 299 298 298 298 296 295 294 294 293 293 292 291 291 291 292 292 292 292 292 292 291 291 292 293 294 295 296 298 299 300 300 301 301 302 302 302 302 302 301 301 301 300 300 300 299 299 298 297 296 295 295
320 320 318 316 315 314 312 311 312 315 318 319 319 319 319 321 322 320 316 314 315 315 315 313 311 308 307 307 307 307 307 304 303 303 303 302 303 302 301 300 298 297 296 295 294 293 292 291 291 291 291 291 290 290 289 289 290 291 292 293 295 296 297 298 299 300 301 301 301 302 302 302 302 301 301 301 300 300 300 299 298 298 297 296 295 294
317 317 316 315 313 312 313 314 316 319 321 323 323 322 320 320 319 316 311 309 310 312 313 312 309 306 304 303 303 304 304 303 302 302 303 303 304 305 304 302 301 300 299 298 296 294 294 293 292 291 290 289 289 288 288 289 290 291 293 294 295 296 297 298 298 299 300 301 301 301 302 302 301 301 301 301 301 300 300 299 299 298 297 295 295 294
314 314 313 311 310 310 312 314 316 317 318 319 318 316 314 314 313 311 308 306 307 309 310 308 306 305 303 303 302 303 303 303 303 303 303 303 304 304 304 302 300 299 298 297 295 294 294 293 293 291 290 289 289 289 290 290 291 292 294 295 296 296 297 297 298 299 299 300 301 301 301 301 301 301 301 301 301 301 300 300 299 298 297 296 294 293
310 309 307 305 305 307 308 311 312 311 312 312 312 311 309 309 310 310 308 307 308 309 308 306 305 304 303 302 302 303 304 305 305 305 304 303 303 303 303 301 298 297 296 295 294 293 293 292 291 291 292 291 290 290 291 292 292 293 294 295 296 296 297 297 298 298 299 300 300 301 301 301 301 301 301 301 301 301 301 300 299 298 297 296 295 293
302 300 298 297 299 301 302 304 305 306 307 307 308 308 308 307 308 309 308 307 308 308 308 308 307 306 304 303 303 305 308 308 308 307 306 304 303 303 302 300 297 295 294 293 293 292 292 292 291 291 291 291 291 291 292 292 293 294 294 295 295 296 297 297 298 298 299 299 299 300 300 300 301 301 301 301 301 301 301 300 299 299 297 296 295 294
296 294 292 293 293 294 296 299 299 299 301 303 303 303 303 304 305 306 305 305 305 306 306 307 308 308 306 305 305 308 313 313 310 307 305 303 302 301 301 298 295 293 292 292 291 291 292 293 292 292 291 291 291 292 292 293 293 294 295 295 296 296 297 297 298 298 298 299 299 299 299 299 299 299 300 300 300 300 300 300 299 298 298 297 295 294
293 290 290 290 291 292 294 296 296 295 297 298 300 300 301 301 302 302 301 302 302 302 302 303 302 301 301 301 302 307 314 314 311 307 304 301 300 300 300 295 292 290 290 290 290 291 292 292 292 292 291 291 292 292 293 294 294 295 295 296 296 296 297 297 298 298 298 298 298 298 298 298 298 298 298 298 298 299 299 299 299 298 297 296 296 295
288 287 286 287 288 290 291 291 292 292 295 297 300 302 302 301 300 299 298 297 297 297 298 297 295 294 294 294 297 303 310 311 309 305 302 299 298 299 299 296 292 290 290 290 291 293 293 292 292 291 291 291 292 293 294 294 295 295 296 296 297 297 297 297 297 297 297 297 297 297 297 297 297 297 298 298 298 299 299 299 298 298 297 296 295 295
284 282 281 283 286 288 288 287 288 291 296 299 302 303 301 300 298 297 295 294 294 294 293 292 291 290 291 292 295 300 306 308 306 302 299 297 297 297 298 296 294 293 292 292 293 294 294 293 293 293 293 293 293 294 294 295 295 296 297 297 297 297 298 298 297 297 297 296 296 296 296 297 297 297 297 298 298 299 299 298 298 297 297 296 295 294
279 278 277 279 281 284 285 287 290 294 297 300 301 300 298 297 296 294 294 294 294 293 291 289 288 288 290 292 294 298 301 303 301 298 297 296 295 296 297 297 297 296 294 294 295 295 295 295 294 294 294 294 295 295 295 295 295 296 297 297 298 298 298 297 297 296 296 296 296 296 296 296 296 296 297 297 297 298 298 298 298 297 296 296 295 294
274 275 276 277 277 280 283 289 293 295 296 298 297 295 294 294 294 294 294 294 293 291 289 287 285 287 289 290 291 293 296 295 292 291 293 295 294 295 298 300 299 297 295 295 296 297 297 296 295 295 295 295 295 295 295 295 295 296 296 297 297 297 297 297 296 296 296 295 296 296 295 296 296 296 296 296 297 297 298 298 297 297 296 296 295 294
271 273 276 277 278 281 286 292 295 295 295 294 292 290 289 289 290 290 291 291 290 288 287 286 286 287 288 288 289 289 290 287 285 286 289 291 293 296 300 302 301 298 295 296 298 300 299 298 297 297 297 296 295 294 294 294 294 295 296 296 297 297 297 296 296 296 296 295 295 295 295 295 295 296 296 296 296 297 297 297 297 296 296 296 295 294
273 276 280 282 284 287 290 292 293 294 294 293 290 288 287 286 285 285 285 286 286 286 287 288 288 288 288 287 287 288 287 286 286 286 287 289 291 295 299 302 301 298 295 297 299 301 300 299 298 297 297 296 295 294 293 292 292 293 295 295 296 297 296 296 296 296 295 295 295 295 295 295 295 296 296 296 296 297 297 297 297 296 296 296 295 294
275 281 286 286 287 288 289 291 292 292 292 291 290 288 287 286 285 285 285 285 285 286 287 288 288 287 288 289 290 289 289 289 290 290 290 290 291 294 297 300 300 298 297 299 300 302 301 300 299 298 298 296 295 293 292 291 291 292 294 295 297 298 297 296 296 296 295 295 295 295 295 295 296 296 296 296 296 297 297 297 296 296 296 296 295 294
272 275 278 280 283 285 287 289 289 288 287 286 285 285 287 288 289 288 287 285 285 286 287 287 286 287 289 291 291 291 292 294 294 292 289 289 291 293 296 299 301 300 300 301 302 302 301 300 299 299 298 296 295 293 291 290 290 292 293 296 297 298 297 297 297 297 297 297 296 296 295 295 295 296 296 296 296 297 297 296 296 296 296 296 295 294
276 277 279 282 286 290 292 291 290 287 284 281 279 280 284 287 289 288 285 284 285 287 288 287 287 289 291 291 291 292 296 298 296 292 288 287 288 291 296 301 303 303 303 303 303 302 301 299 298 298 297 296 295 293 292 292 293 293 294 294 295 296 296 297 297 298 298 297 296 296 295 295 296 296 296 297 297 297 297 296 296 296 296 296 295 294
285 285 286 290 294 297 298 297 293 288 282 279 277 278 281 284 284 282 281 284 288 289 286 285 287 290 293 293 293 294 297 296 294 290 288 286 286 289 296 303 306 306 306 305 304 303 300 297 296 295 295 295 295 296 296 296 295 295 295 294 294 294 295 296 296 296 297 297 296 295 295 295 296 296 296 297 297 297 297 297 296 296 297 296 295 293
289 288 290 294 297 300 301 300 296 291 285 282 280 280 279 277 275 275 278 284 288 287 284 284 286 289 292 294 295 296 296 293 292 293 296 293 290 292 298 304 307 309 310 310 308 306 302 298 296 296 296 297 298 299 298 298 298 297 296 295 295 295 294 294 293 293 295 295 295 295 295 295 296 296 297 297 298 298 297 297 297 297 297 296 294 292
291 292 294 295 296 297 297 296 295 294 292 290 289 285 279 273 270 271 276 281 283 282 282 283 285 288 291 296 298 298 294 293 298 308 312 304 297 297 302 305 307 309 312 314 312 308 304 302 300 299 300 301 301 301 300 299 298 298 297 296 296 295 294 293 293 292 293 293 294 295 295 295 296 297 297 298 298 297 297 296 297 297 296 295 293 291
296 297 296 296 295 294 292 290 290 291 292 292 291 288 280 273 270 271 275 277 277 277 279 281 284 287 290 294 297 295 291 294 303 314 317 307 299 298 303 305 305 306 309 310 311 309 306 305 304 304 304 304 302 301 300 299 298 297 297 296 296 295 295 295 295 295 295 295 295 295 295 296 297 297 298 298 298 297 296 296 297 296 295 294 292 291
298 298 297 297 295 292 289 286 285 286 287 288 288 284 280 274 272 271 273 274 274 275 278 280 283 284 284 283 281 280 284 290 297 305 310 303 298 297 300 301 302 302 303 300 296 294 299 302 304 305 306 305 303 301 299 298 298 297 297 296 296 296 296 298 298 298 298 298 298 297 297 298 298 298 298 298 297 297 296 296 296 296 295 294 292 291
298 297 296 295 293 290 286 284 284 285 286 286 285 283 280 277 274 273 273 274 274 274 276 278 280 281 281 279 277 277 281 286 292 298 302 299 297 296 298 299 299 299 300 297 292 287 285 289 296 301 303 303 302 301 300 299 298 297 296 296 296 296 298 299 300 301 300 301 301 300 300 300 300 299 299 298 298 297 297 296 296 296 295 294 292 292
297 297 295 294 291 289 286 286 287 288 287 286 284 283 281 280 279 278 276 275 274 273 273 273 276 278 280 281 280 280 281 284 289 295 298 296 294 294 296 297 297 298 299 298 295 291 287 287 291 296 300 301 301 300 299 299 298 297 296 295 296 297 298 300 301 301 301 302 302 301 301 301 301 301 300 299 299 298 297 297 296 295 294 293 291 291
298 297 295 294 292 291 290 291 292 293 291 290 289 287 286 284 283 282 280 278 276 275 273 271 271 273 275 278 281 282 283 286 290 293 294 291 290 291 293 293 294 296 297 296 295 295 292 291 291 294 297 300 300 299 298 298 298 298 297 296 295 296 297 299 300 301 301 301 301 301 302 301 301 301 300 300 299 298 297 297 296 295 294 292 291 290
296 296 296 296 295 295 296 297 298 298 298 296 294 293 292 290 289 287 284 282 280 278 276 274 272 271 271 272 274 278 281 285 288 290 290 287 287 288 289 289 291 293 293 293 292 292 293 293 293 294 295 296 298 299 300 300 301 300 299 298 297 297 297 298 299 300 300 300 301 301 302 302 302 301 300 299 299 298 297 297 296 296 295 293 292 290
294 295 296 298 299 299 300 301 301 302 301 300 299 299 298 296 293 291 288 286 284 283 282 281 278 274 272 271 273 276 279 283 285 286 285 284 284 284 284 285 287 288 288 288 289 290 291 292 294 294 293 293 294 297 300 303 304 302 300 300 300 299 299 298 299 299 299 299 300 301 302 302 301 300 300 299 299 299 299 298 297 297 296 294 293 291
294 296 298 300 301 301 301 302 302 302 302 301 301 302 300 298 296 294 291 289 288 286 285 283 281 279 279 276 276 278 280 282 283 284 283 282 281 280 280 281 283 283 281 281 283 285 287 289 291 293 293 293 292 294 297 301 302 302 301 301 301 300 300 299 300 300 300 300 301 301 301 301 300 300 300 300 301 301 301 300 299 299 297 296 295 293
296 297 299 300 301 301 300 300 301 301 301 302 301 301 300 298 296 294 292 290 288 285 283 282 281 281 282 282 282 282 282 283 284 285 285 283 281 278 277 277 278 279 279 277 277 279 281 282 283 286 289 292 294 295 296 298 298 299 300 302 302 301 300 301 302 302 302 301 301 301 301 301 300 300 301 301 302 301 301 300 300 299 299 298 297 296
296 297 298 298 299 298 298 298 299 300 301 301 301 300 299 298 297 295 294 292 289 287 286 285 284 283 283 283 283 283 284 285 285 286 285 284 282 279 277 275 275 277 278 277 277 276 275 277 279 280 283 286 290 293 295 296 296 297 299 301 302 301 302 303 303 303 302 301 300 300 301 301 302 301 301 301 300 299 299 298 298 298 298 297 296 296
296 296 297 297 297 297 296 296 297 298 299 300 300 300 299 298 297 297 295 295 293 291 290 291 290 288 287 285 284 284 285 285 285 285 285 285 284 281 277 274 274 275 277 277 277 277 275 275 277 280 282 284 286 289 291 292 293 295 297 297 297 298 299 301 302 302 302 301 300 300 301 301 301 301 301 300 299 298 297 296 296 296 296 294 293 293
295 295 295 296 297 296 296 296 296 297 298 297 297 296 297 296 295 294 295 296 296 295 295 293 292 291 291 290 288 286 285 285 286 286 286 286 284 281 278 275 274 274 275 276 277 277 277 276 278 280 281 283 286 288 290 291 292 293 293 292 294 296 298 300 301 302 302 302 301 301 300 300 300 300 300 300 299 298 297 295 294 293 293 293 293 292
294 294 294 295 296 296 296 297 298 298 299 298 296 295 295 294 293 292 292 294 294 295 294 293 292 291 291 291 291 290 289 289 289 289 287 285 283 281 278 276 275 274 274 274 276 278 278 278 279 279 281 282 283 284 287 289 292 293 292 292 293 296 298 300 301 302 302 301 300 299 299 298 298 299 299 299 299 298 297 296 295 293 293 293 293 292
293 294 294 295 297 298 299 299 299 300 299 297 296 296 295 294 293 292 290 291 292 294 296 295 294 293 291 291 292 294 294 294 294 292 289 287 285 283 280 277 277 276 273 271 274 278 281 282 281 281 282 283 283 283 285 287 289 291 291 292 292 291 292 295 299 301 301 300 299 298 298 297 298 299 300 300 300 300 299 298 297 295 294 293 292 291
294 295 296 297 299 300 300 300 300 300 299 297 296 296 295 295 293 291 290 290 291 292 295 294 294 294 292 294 295 297 298 298 298 297 295 292 289 286 283 279 277 276 273 270 271 274 278 282 285 285 285 284 283 282 283 285 287 288 289 290 290 290 289 292 295 297 297 298 298 299 299 299 300 301 302 302 302 301 300 299 297 296 295 294 293 291
296 297 299 300 301 301 301 300 300 300 298 297 297 296 295 294 292 290 288 287 288 290 291 293 292 291 291 295 298 299 299 300 300 300 299 298 296 292 287 282 278 275 273 272 274 275 275 278 281 284 286 286 284 281 279 281 283 285 287 289 291 292 293 294 294 294 294 295 297 299 301 302 303 303 302 302 302 301 300 298 296 295 295 295 293 292
298 299 301 301 302 301 300 300 300 300 298 297 297 297 296 295 295 293 291 288 287 288 291 294 293 291 291 294 297 298 298 299 300 301 301 301 299 296 292 287 281 278 276 275 277 279 277 276 276 277 279 281 281 281 281 281 281 282 285 288 290 292 293 295 295 296 295 296 297 300 302 304 304 303 302 301 301 300 299 298 297 296 295 294 293 292
299 300 301 301 301 300 300 300 300 298 298 298 299 299 299 299 297 295 292 293 293 293 294 294 294 294 293 294 295 296 296 296 298 299 301 301 300 298 296 292 289 285 282 280 279 278 277 274 272 270 269 269 272 277 280 281 281 282 283 286 289 290 291 294 296 298 298 298 298 299 301 302 302 302 301 301 300 299 299 298 298 298 297 295 294 293
300 299 300 300 299 299 299 299 299 298 297 297 298 300 301 301 300 297 294 295 296 295 295 295 295 295 295 295 296 296 297 296 297 298 299 300 300 300 299 297 295 293 291 288 285 282 279 276 273 268 265 263 264 269 274 278 280 282 284 286 288 290 291 294 297 299 300 300 300 300 300 300 299 298 298 298 297 297 298 299 299 299 299 299 297 295
299 299 298 298 298 297 298 298 297 297 295 295 296 298 301 302 302 300 297 296 296 295 295 296 296 296 296 297 297 298 298 298 298 299 300 301 301 301 301 301 300 299 298 297 295 292 290 288 284 279 271 265 262 264 269 274 280 284 286 288 290 292 294 296 298 300 301 302 302 302 301 300 298 296 295 294 295 296 298 299 300 301 301 301 300 298
299 299 299 298 297 296 296 297 296 295 294 294 295 296 298 300 302 303 302 300 299 298 297 298 297 296 297 297 298 299 298 298 298 299 300 301 302 301 301 301 302 302 303 303 303 303 303 302 299 296 292 282 272 266 267 273 280 286 289 291 294 295 296 297 299 300 301 302 302 302 301 300 299 298 296 296 296 297 299 300 301 302 303 303 302 300